Simultaneous Nadir Overpasses (SNOs) Predictions

Prediction of SNOs between AQUA and METOP-A Satellite Orbit:

Table of predicted SNOs for the next 14.0 days since TLE Epoch: 10/9/2018
Index Date (AQUA) Time (AQUA) Lat,Lon (AQUA) SZA (AQUA ) Date (METOP-A) Time (METOP-A) Lat,Lon (METOP-A) SZA (METOP-A ) Distance(km) Time Diff (sec)
1 10/11/2018 17:09:54 -74.11, 96.16 98.77 10/11/2018 17:08:46 -74.04, 93.87 98.78 70.39 68
2 10/11/2018 17:59:31 74.60, -97.37 81.76 10/11/2018 17:59:14 74.63, -97.31 81.79 3.22 17
3 10/11/2018 18:48:58 -74.67, 70.11 98.16 10/11/2018 18:49:55 -74.65, 70.08 98.18 2.14 57
4 10/14/2018 12:44:09 -74.13, 162.56 97.70 10/14/2018 12:43:01 -74.09, 160.38 97.69 66.57 68
5 10/14/2018 13:33:46 74.63, -31.00 82.84 10/14/2018 13:33:30 74.62, -30.93 82.83 2.24 16
6 10/14/2018 14:23:13 -74.69, 136.50 97.10 10/14/2018 14:24:10 -74.69, 136.60 97.09 2.90 57
7 10/17/2018 08:18:24 -74.21,-131.18 96.59 10/17/2018 08:17:15 -74.13,-133.11 96.62 59.35 69
8 10/17/2018 09:07:59 74.61, 35.48 83.85 10/17/2018 09:07:45 74.61, 35.45 83.85 1.11 14
9 10/17/2018 09:57:26 -74.66,-157.00 96.09 10/17/2018 09:58:25 -74.68,-157.02 96.07 2.48 59
10 10/20/2018 03:52:39 -74.24, -64.83 95.53 10/20/2018 03:51:30 -74.16, -66.62 95.57 54.96 69
11 10/20/2018 04:42:13 74.61, 101.94 84.87 10/20/2018 04:42:00 74.64, 101.95 84.90 3.79 13
12 10/20/2018 05:31:41 -74.70, -90.65 95.03 10/20/2018 05:32:41 -74.67, -90.65 95.06 3.33 60
13 10/22/2018 23:26:54 -74.29, 1.50 94.48 10/22/2018 23:25:44 -74.24, -0.01 94.50 45.81 70
14 10/23/2018 00:16:27 74.61, 168.37 85.87 10/23/2018 00:16:16 74.62, 168.30 85.88 2.20 11
15 10/23/2018 01:05:55 -74.70, -24.21 94.04 10/23/2018 01:06:56 -74.70, -24.16 94.04 1.44 61




NCC Satellite Simultaneous Nadir Overpasses (SNOs) Prediction Service
